User: anonymous   Login
Location: Unspecified
(0.0000°N, 0.0000°E)
Time: 01:56:41
(UTC+00:00)
Language:

Kosmos-2218 - Orbit

View from above orbital plane
View from above orbital plane
View from above satellite
View from above satellite

Ground track
Ground track

The orbit data is extracted from the following two-line orbital elements,

1 22207U 92073A   17147.87109816 +.00000039 +00000-0 +26121-4 0  9992
2 22207 082.9234 064.3056 0032334 188.0009 218.0381 13.72860069231122
Epoch (UTC): 27 May 2017 20:54:22
Eccentricity: 0.0032334
inclination: 82.9234°
perigee height: 965 km
apogee height: 1013 km
right ascension of ascending node: 64.3056°
argument of perigee: 188.0009°
revolutions per day: 13.72860069
mean anomaly at epoch: 218.0381°
orbit number at epoch: 23112

The dashed part of the orbit path shows where the satellite is in the earth's shadow,  

DLR